• In Hungary
  • List of Countries
  • For 7 days
  • Water Temperature
  • Satellite Maps
  • Weather Map
  • News
  • Weather Widgets
  • user-avatar
    Login

    Hourly Weather Namyur

    Today, 24 October, Tuesday

    Time Temperature Precipitation Wind Pressure Humidity
    00:00 +12°C° 0 mm 3 mps 756 mmHg 95%
    01:00 +12°C° 0 mm 3 mps 755 mmHg 95%
    02:00 +12°C° 0 mm 4 mps 755 mmHg 96%
    03:00 +12°C° 0 mm 4 mps 755 mmHg 96%
    04:00 +12°C° 0 mm 4 mps 755 mmHg 96%
    05:00 +12°C° 0 mm 4 mps 755 mmHg 96%
    06:00 +12°C° 0 mm 4 mps 755 mmHg 95%
    07:00 +13°C° 0.2 mm 4 mps 756 mmHg 95%
    08:00 +13°C° 0.2 mm 4 mps 756 mmHg 94%
    09:00 +13°C° 0.2 mm 5 mps 756 mmHg 93%
    10:00 +14°C° 0.4 mm 5 mps 756 mmHg 93%
    11:00 +14°C° 0.4 mm 5 mps 756 mmHg 94%
    12:00 +14°C° 0.4 mm 5 mps 756 mmHg 94%
    13:00 +14°C° 0.1 mm 4 mps 756 mmHg 94%
    14:00 +15°C° 0.1 mm 4 mps 756 mmHg 94%
    15:00 +15°C° 0.1 mm 4 mps 755 mmHg 94%
    16:00 +15°C° 0 mm 4 mps 756 mmHg 94%
    17:00 +15°C° 0 mm 4 mps 756 mmHg 95%
    18:00 +14°C° 0 mm 3 mps 756 mmHg 96%
    19:00 +14°C° 0 mm 3 mps 756 mmHg 96%
    20:00 +14°C° 0 mm 3 mps 756 mmHg 96%
    21:00 +14°C° 0 mm 3 mps 756 mmHg 97%
    22:00 +14°C° 0 mm 3 mps 756 mmHg 96%
    23:00 +14°C° 0 mm 4 mps 756 mmHg 96%

    Tomorrow, 25 October, Wednesday

    Time Temperature Precipitation Wind Pressure Humidity
    00:00 +14°C° 0 mm 4 mps 756 mmHg 96%
    01:00 +13°C° 0 mm 4 mps 756 mmHg 96%
    02:00 +13°C° 0 mm 4 mps 756 mmHg 96%
    03:00 +13°C° 0 mm 4 mps 756 mmHg 95%
    04:00 +13°C° 0 mm 4 mps 756 mmHg 95%
    05:00 +13°C° 0 mm 4 mps 756 mmHg 95%
    06:00 +13°C° 0 mm 5 mps 756 mmHg 95%
    07:00 +14°C° 0 mm 5 mps 756 mmHg 94%
    08:00 +14°C° 0 mm 5 mps 756 mmHg 92%
    09:00 +15°C° 0 mm 5 mps 756 mmHg 90%
    10:00 +15°C° 0 mm 5 mps 757 mmHg 87%
    11:00 +17°C° 0 mm 4 mps 757 mmHg 84%
    12:00 +17°C° 0 mm 4 mps 757 mmHg 82%
    13:00 +18°C° 0 mm 3 mps 757 mmHg 82%
    14:00 +18°C° 0 mm 3 mps 757 mmHg 82%
    15:00 +18°C° 0 mm 2 mps 757 mmHg 82%
    16:00 +17°C° 0 mm 2 mps 757 mmHg 85%
    17:00 +16°C° 0 mm 2 mps 757 mmHg 89%
    18:00 +15°C° 0 mm 2 mps 757 mmHg 93%
    19:00 +14°C° 0 mm 2 mps 757 mmHg 93%
    20:00 +14°C° 0 mm 2 mps 758 mmHg 94%
    21:00 +14°C° 0 mm 2 mps 758 mmHg 94%
    22:00 +14°C° 0 mm 2 mps 758 mmHg 94%
    23:00 +14°C° 0 mm 2 mps 758 mmHg 95%

    Day after tomorrow, 26 October, Thursday

    Time Temperature Precipitation Wind Pressure Humidity
    00:00 +13°C° 0 mm 2 mps 758 mmHg 95%
    01:00 +13°C° 0 mm 2 mps 758 mmHg 95%
    02:00 +13°C° 0 mm 2 mps 758 mmHg 95%
    03:00 +13°C° 0 mm 2 mps 757 mmHg 95%
    04:00 +13°C° 0 mm 2 mps 758 mmHg 96%
    05:00 +12°C° 0 mm 1 mps 758 mmHg 96%
    06:00 +12°C° 0 mm 1 mps 758 mmHg 96%
    07:00 +14°C° 0 mm 2 mps 758 mmHg 93%
    08:00 +15°C° 0 mm 2 mps 758 mmHg 90%
    09:00 +16°C° 0 mm 2 mps 758 mmHg 87%
    10:00 +17°C° 0 mm 2 mps 758 mmHg 83%
    11:00 +19°C° 0 mm 2 mps 758 mmHg 78%
    12:00 +20°C° 0 mm 2 mps 758 mmHg 73%
    13:00 +20°C° 0 mm 2 mps 758 mmHg 75%
    14:00 +19°C° 0 mm 2 mps 758 mmHg 76%
    15:00 +20°C° 0 mm 1 mps 758 mmHg 78%
    16:00 +19°C° 0 mm 1 mps 758 mmHg 82%
    17:00 +18°C° 0 mm 1 mps 758 mmHg 86%
    18:00 +14°C° 0 mm 0 mps 758 mmHg 90%
    19:00 +15°C° 0 mm 1 mps 758 mmHg 90%
    20:00 +15°C° 0 mm 1 mps 758 mmHg 91%
    21:00 +15°C° 0 mm 1 mps 758 mmHg 92%
    22:00 +15°C° 0 mm 1 mps 758 mmHg 93%
    23:00 +14°C° 0 mm 2 mps 757 mmHg 94%

    27 October, Friday

    Time Temperature Precipitation Wind Pressure Humidity
    00:00 +14°C° 0 mm 2 mps 757 mmHg 94%
    01:00 +14°C° 0 mm 2 mps 757 mmHg 95%
    02:00 +13°C° 0 mm 2 mps 757 mmHg 95%
    03:00 +13°C° 0 mm 2 mps 757 mmHg 96%
    04:00 +13°C° 0 mm 2 mps 757 mmHg 96%
    05:00 +13°C° 0 mm 2 mps 757 mmHg 97%
    06:00 +11°C° 0 mm 3 mps 757 mmHg 97%
    07:00 +12°C° 0.1 mm 3 mps 757 mmHg 95%
    08:00 +13°C° 0.1 mm 3 mps 757 mmHg 94%
    09:00 +13°C° 0.1 mm 4 mps 757 mmHg 92%
    10:00 +14°C° 0.2 mm 4 mps 757 mmHg 89%
    11:00 +14°C° 0.2 mm 4 mps 758 mmHg 87%
    12:00 +14°C° 0.2 mm 4 mps 758 mmHg 84%
    13:00 +14°C° 0 mm 4 mps 758 mmHg 82%
    14:00 +13°C° 0 mm 4 mps 758 mmHg 79%
    15:00 +13°C° 0 mm 4 mps 758 mmHg 77%
    16:00 +12°C° 0 mm 3 mps 758 mmHg 81%
    17:00 +10°C° 0 mm 3 mps 758 mmHg 85%
    18:00 +9°C° 0 mm 2 mps 759 mmHg 90%
    19:00 +9°C° 0 mm 2 mps 759 mmHg 91%
    20:00 +8°C° 0 mm 2 mps 759 mmHg 92%
    21:00 +9°C° 0 mm 1 mps 759 mmHg 93%
    22:00 +9°C° 0 mm 1 mps 759 mmHg 92%
    23:00 +9°C° 0 mm 1 mps 759 mmHg 91%

    28 October, Saturday

    Time Temperature Precipitation Wind Pressure Humidity
    00:00 +8°C° 0 mm 1 mps 759 mmHg 90%
    01:00 +8°C° 0 mm 1 mps 759 mmHg 90%
    02:00 +8°C° 0 mm 1 mps 758 mmHg 90%
    03:00 +8°C° 0 mm 1 mps 758 mmHg 90%
    04:00 +7°C° 0 mm 1 mps 758 mmHg 91%
    05:00 +6°C° 0 mm 2 mps 757 mmHg 91%
    06:00 +6°C° 0 mm 2 mps 757 mmHg 92%
    07:00 +7°C° 0 mm 2 mps 757 mmHg 90%
    08:00 +8°C° 0 mm 2 mps 756 mmHg 87%
    09:00 +9°C° 0 mm 3 mps 756 mmHg 84%
    10:00 +10°C° 0 mm 3 mps 755 mmHg 81%
    11:00 +11°C° 0 mm 3 mps 754 mmHg 77%
    12:00 +12°C° 0 mm 4 mps 754 mmHg 73%
    13:00 +12°C° 0 mm 4 mps 753 mmHg 75%
    14:00 +11°C° 0 mm 3 mps 752 mmHg 77%
    15:00 +11°C° 0 mm 3 mps 751 mmHg 80%
    16:00 +11°C° 0.2 mm 3 mps 751 mmHg 85%
    17:00 +10°C° 0.2 mm 3 mps 751 mmHg 89%
    18:00 +10°C° 0.2 mm 2 mps 750 mmHg 94%
    19:00 +10°C° 0.6 mm 3 mps 750 mmHg 94%
    20:00 +10°C° 0.6 mm 3 mps 750 mmHg 94%
    21:00 +10°C° 0.6 mm 4 mps 750 mmHg 94%
    22:00 +8°C° 0.1 mm 4 mps 750 mmHg 94%
    23:00 +9°C° 0.1 mm 3 mps 750 mmHg 93%

    29 October, Sunday

    Time Temperature Precipitation Wind Pressure Humidity
    00:00 +8°C° 0.1 mm 3 mps 750 mmHg 93%
    01:00 +7°C° 0.1 mm 4 mps 751 mmHg 90%
    02:00 +7°C° 0.1 mm 4 mps 751 mmHg 87%
    03:00 +7°C° 0.1 mm 4 mps 751 mmHg 85%
    04:00 +7°C° 0.1 mm 4 mps 751 mmHg 84%
    05:00 +7°C° 0.1 mm 4 mps 752 mmHg 84%
    06:00 +7°C° 0.1 mm 4 mps 752 mmHg 83%
    07:00 +8°C° 0.1 mm 5 mps 753 mmHg 81%
    08:00 +8°C° 0.1 mm 5 mps 753 mmHg 79%
    09:00 +8°C° 0.1 mm 5 mps 753 mmHg 77%
    10:00 +9°C° 0.1 mm 5 mps 754 mmHg 75%
    11:00 +9°C° 0.1 mm 5 mps 754 mmHg 72%
    12:00 +9°C° 0.1 mm 5 mps 754 mmHg 69%
    13:00 +9°C° 0.1 mm 5 mps 754 mmHg 70%
    14:00 +10°C° 0.1 mm 4 mps 755 mmHg 71%
    15:00 +10°C° 0.1 mm 4 mps 755 mmHg 72%
    16:00 +9°C° 0 mm 3 mps 755 mmHg 77%
    17:00 +8°C° 0 mm 3 mps 755 mmHg 81%
    18:00 +7°C° 0 mm 2 mps 756 mmHg 86%
    19:00 +7°C° 0 mm 2 mps 756 mmHg 87%
    20:00 +7°C° 0 mm 2 mps 756 mmHg 88%
    21:00 +7°C° 0 mm 2 mps 756 mmHg 88%
    22:00 +7°C° 0 mm 2 mps 756 mmHg 89%
    23:00 +5°C° 0 mm 3 mps 756 mmHg 90%

    30 October, Monday

    Time Temperature Precipitation Wind Pressure Humidity
    00:00 +5°C° 0 mm 3 mps 756 mmHg 90%
    01:00 +5°C° 0 mm 3 mps 756 mmHg 90%
    02:00 +5°C° 0 mm 3 mps 756 mmHg 89%
    03:00 +5°C° 0 mm 3 mps 755 mmHg 88%
    04:00 +7°C° 0 mm 3 mps 755 mmHg 89%
    05:00 +7°C° 0 mm 3 mps 755 mmHg 89%
    06:00 +7°C° 0 mm 3 mps 755 mmHg 90%
    07:00 +8°C° 0 mm 3 mps 756 mmHg 90%
    08:00 +8°C° 0 mm 3 mps 756 mmHg 90%
    09:00 +8°C° 0 mm 3 mps 756 mmHg 90%
    10:00 +9°C° 0 mm 3 mps 756 mmHg 89%
    11:00 +9°C° 0 mm 3 mps 756 mmHg 88%
    12:00 +10°C° 0 mm 3 mps 756 mmHg 88%
    13:00 +10°C° 0 mm 3 mps 756 mmHg 88%
    14:00 +10°C° 0 mm 3 mps 756 mmHg 89%
    15:00 +12°C° 0 mm 2 mps 756 mmHg 90%
    16:00 +10°C° 0.1 mm 2 mps 757 mmHg 92%
    17:00 +10°C° 0.1 mm 2 mps 757 mmHg 94%
    18:00 +10°C° 0.1 mm 2 mps 757 mmHg 95%
    19:00 +9°C° 0 mm 2 mps 757 mmHg 96%
    20:00 +9°C° 0 mm 2 mps 758 mmHg 96%
    21:00 +9°C° 0 mm 1 mps 758 mmHg 96%
    22:00 +9°C° 0 mm 1 mps 758 mmHg 97%
    23:00 +9°C° 0 mm 1 mps 758 mmHg 97%
    Show more